Regional Weather Roundup
Issued by NWS

Home | Current Version | Previous Version | Text Only | Print | Product List | Glossary Off
Versions: 1 2 3 4 5 6 7 8 9 10 11 12 13 14 15 16 17 18 19 20 21 22 23 24 25 26 27 28 29 30 31 32 33 34 35 36 37 38 39 40 41 42 43 44 45 46 47 48 49 50

000
ASUS43 KMPX 221010
RWRMN
WEATHER ROUNDUP FOR MINNESOTA
NATIONAL WEATHER SERVICE TWIN CITIES/CHANHASSEN MN
400 AM CST THU FEB 22 2018


NOTE: "FAIR" INDICATES FEW OR NO CLOUDS BELOW 12,000 FEET WITH NO
SIGNIFICANT WEATHER AND/OR OBSTRUCTIONS TO VISIBILITY. N/A MEANS
CURRENT SKY AND/OR WEATHER CONDITIONS ARE NOT AVAILABLE.

MNZ060>063-068>070-221100-
   Twin Cities Metro

CITY           SKY/WX    TMP DP  RH WIND       PRES   REMARKS
TWIN CITIES    MOCLDY     8   3  80 CALM      30.61R
ST PAUL        FAIR       5   2  87 CALM      30.63R
CRYSTAL        FAIR       2  -2  83 CALM      30.59S
BLAINE         FAIR       1   0  92 CALM      30.59S
LAKEVILLE        N/A      1   0  92 CALM      30.59S
EDEN PRAIRIE   FAIR       4   0  83 E5        30.59S WCI  -5
SOUTH ST PAUL  FAIR       5   1  83 CALM      30.61S
LAKE ELMO      FAIR       0  -6  78 CALM      30.61S
$$
MNZ001>005-007-008-013>017-022>024-027-028-221100-
   Northwest Minnesota

CITY           SKY/WX    TMP DP  RH WIND       PRES   REMARKS
BEMIDJI        MOCLDY    -1  -5  82 SE7       30.48F WCI -14
HALLOCK        FAIR      -4  -8  84 SE10      30.47F WCI -21
ROSEAU         FAIR      -6 -11  77 S7        30.48F WCI -20
WARROAD        FAIR      -6 -11  77 S3        30.48F
THIEF RVR FALL FAIR      -2  -6  83 SE6       30.49F WCI -14
CROOKSTON      FAIR      -6  -9  84 S7        30.50F WCI -20
FOSSTON        FAIR      -4  -9  77 SE5       30.47F WCI -15
DETROIT LAKES  FAIR       0  -4  85 S9        30.49F WCI -16
MOORHEAD       FAIR       3  -4  72 SE12      30.48F WCI -13
PARK RAPIDS    FAIR     -14 -19  79 CALM      30.49F
MAHNOMEN       FAIR       2  -4  76 SE6       30.47F WCI  -9
$$
MNZ006-009>011-018-025>026-221100-
   North Central Minnesota

CITY           SKY/WX    TMP DP  RH WIND       PRES   REMARKS
BAUDETTE       FAIR     -10 -13  86 SE7       30.48F WCI -25
FLAG ISLAND    FAIR      -6  -9  84 SE7       30.48F WCI -20
INTL FALLS     FAIR     -17 -18  95 SE3       30.53F
WASKISH        FAIR     -13 -17  84 CALM      30.50S
BIG FORK       FAIR      -9 -15  77 CALM      30.51F
LONGVILLE      FAIR     -15 -18  84 CALM      30.52F
GRAND RAPIDS   FAIR     -10 -13  86 SE3       30.55F
CRANE LAKE     FAIR     -18 -24  76 CALM      30.58S
ORR            FAIR      -4  -9  77 CALM      30.50F
COOK             N/A    -15 -18  84 CALM      30.54S
WALKER         FAIR      -3  -7  84 CALM      30.50F
$$
MNZ012-019>021-037-221100-
   Northeast Minnesota

CITY           SKY/WX    TMP DP  RH WIND       PRES   REMARKS
DULUTH         FAIR      -2  -6  83 W3        30.54F
ELY            FAIR      -9 -13  84 CALM      30.54S
HIBBING        FAIR     -16 -22  74 CALM      30.54S
EVELETH        FAIR     N/A N/A N/A CALM      30.55F
DULUTH HARBOR  FAIR       1  -2  85 CALM      30.63S
TWO HARBORS    FAIR       5  -2  72 CALM      30.55S
SILVER BAY     FAIR      -9 -13  84 CALM      30.55F
GRAND MARAIS     N/A     11   0  61 SW5       30.61S WCI   3
G MARAIS ARPRT FAIR       3  -6  66 W3        30.51F
$$
MNZ029>031-032-039>041-046>048-054>057-064-221100-
   West Central Minnesota

CITY           SKY/WX    TMP DP  RH WIND       PRES   REMARKS
FERGUS FALLS   FAIR       7   0  72 SE10      30.51F WCI  -8
WHEATON        FAIR      -2  -8  78 SE14      30.51F WCI -21
MORRIS         FAIR       1  -4  78 SE8       30.52S WCI -12
ALEXANDRIA     FAIR       1  -3  83 SE5       30.51F WCI  -9
ELBOW LAKE     FAIR       3  -2  79 SE8       30.51F WCI -11
WADENA         FAIR      -9 -15  77 CALM      30.50F
GLENWOOD       FAIR       0  -2  92 SE5       30.53S WCI -10
APPLETON       FAIR       0  -4  85 SE6       30.54S WCI -12
BENSON         FAIR      -2  -6  84 CALM      30.55S
ORTONVILLE     FAIR       3  -2  78 SE9       30.50F WCI -11
MADISON        FAIR       0  -6  78 CALM      30.53F
WILLMAR        FAIR       0  -4  85 E3        30.56F
$$
MNZ033>034-036-042>043-049>051-058-059-221100-
   Central Minnesota

CITY           SKY/WX    TMP DP  RH WIND       PRES   REMARKS
ST CLOUD       FAIR      -7 -10  87 E3        30.57F
SAUK CENTRE    FAIR      -7 -11  83 CALM      30.53F
PAYNESVILLE    FAIR      -4  -7  89 CALM      30.55S
AITKIN         FAIR      -9 -15  77 CALM      30.53F
PINE RIVER     FAIR     -11 -17  77 CALM      30.55S
BRAINERD       FAIR      -8 -14  74 CALM      30.54F
STAPLES        FAIR      -9 -15  77 CALM      30.52F
LONG PRAIRIE   FAIR      -4  -8  84 CALM      30.53S
LITTLE FALLS   FAIR      -8 -17  65 CALM      30.56F
LITCHFIELD     FAIR       1   0  92 CALM      30.56S
BUFFALO        FAIR      -3  -7  82 CALM      30.59S
MAPLE LAKE     FAIR      -3  -6  88 CALM      30.58F
HUTCHINSON     FAIR       5   0  81 NE3       30.56S
$$
MNZ037-044-045-052-053-221100-
   East Central Minnesota

CITY           SKY/WX    TMP DP  RH WIND       PRES   REMARKS
PRINCETON      FAIR      -6  -9  84 CALM      30.58F
CAMBRIDGE        N/A     -2 -11  65 CALM      30.60S
RUSH CITY      MOCLDY    -6 -10  83 CALM      30.61R
MOOSE LAKE     FAIR     -11 -17  77 CALM      30.57F
HINCKLEY       FAIR     -11 -15  84 CALM      30.59F
CLOQUET        FAIR      -9 -15  77 CALM      30.55F
MCGREGOR       FAIR      -6  -9  84 CALM      30.56F
$$
MNZ071>073-080-081-089-090-097-098-221100-
   Southwest Minnesota

CITY           SKY/WX    TMP DP  RH WIND       PRES   REMARKS
MONTEVIDEO     FAIR       1  -2  85 S6        30.55S WCI -10
GRANITE FALLS  FAIR       1  -2  85 SE5       30.57R WCI  -8
CANBY          FAIR      -1  -5  82 CALM      30.53S
MARSHALL       FAIR       2  -2  83 E3        30.53F
REDWOOD FALLS  FAIR       4   0  83 SE6       30.55S WCI  -7
OLIVIA         FAIR       1  -4  78 CALM      30.55S
PIPESTONE      FAIR       9   3  78 CALM      30.47R
WORTHINGTON    FAIR      11   8  88 E6        30.49F WCI   1
JACKSON        CLOUDY    12   9  85 CALM      30.51S
TRACY          FAIR       7   3  84 CALM      30.50F
SLAYTON        FAIR       9   5  83 SE3       30.49S
$$
MNZ065>067-074>077-082>085-091>093-221100-
   South Central Minnesota

CITY           SKY/WX    TMP DP  RH WIND       PRES   REMARKS
MANKATO        CLOUDY    11   6  81 E8        30.57R WCI  -1
NEW ULM        CLOUDY     9   1  72 CALM      30.56R
ST JAMES       MOCLDY    14   9  79 E3        30.56S
FAIRMONT       FAIR      15  11  83 CALM      30.54R
GLENCOE        FAIR       5   1  83 CALM      30.57R
FARIBAULT      CLOUDY     7   3  85 CALM      30.58R
OWATONNA       MOCLDY    12   7  79 CALM      30.56R
WASECA         CLOUDY    14   9  79 NE3       30.57R
ALBERT LEA     CLOUDY    19  14  79 CALM      30.53S
$$
MNZ078>079-086>088-094>096-221100-
   Southeast Minnesota

CITY           SKY/WX    TMP DP  RH WIND       PRES   REMARKS
ROCHESTER      MOCLDY    16  11  80 E5        30.55R WCI   9
RED WING       FAIR       5   0  78 CALM      30.60F
STANTON        FAIR       1  -4  82 CALM      30.58S
DODGE CENTER   FAIR      12   9  85 CALM      30.55R
WINONA         CLOUDY    18  12  79 CALM      30.61R
AUSTIN         MOCLDY    19  16  86 SE3       30.55R
PRESTON        CLOUDY    18  13  81 SE5       30.55F WCI  11
$$
ABBREVIATIONS USED IN REMARKS
   TC - TEMPERATURES IN CELSIUS
  WCI - WIND CHILL INDEX
   HX - HEAT INDEX
  VSB - VISIBILITY
$$




USA.gov is the U.S. government's official web portal to all federal, state and local government web resources and services.